Location: *
(50.9167°S, 179.4000°W)
Time: 04:38:14
(UTC+00:00)

ATLAS 2AS CENTAUR R/B - Pass Details

Date: 24 June 2024
Orbit: 1019 x 1192 km, 63.7° (Epoch: 21 July)

Event Time Altitude Azimuth Distance (km) Brightness Sun altitude
Exits shadow 14:46:51 19° 144° (SE) 2,421 4.9 -47.8°
Drops below altitude 10° 14:49:10 10° 131° (SE) 3,060 5.6 -47.4°
Sets 14:52:18 0° 121° (ESE) 4,047 6.4 -47.0°
